SAS4414 ENTC-ENSB

Flight info

Callsign SAS4414
Flight time N/A
Altitude 35000
Route LOMVI P600 VAVAD/N0453F370 P600 INPAR
Aircraft A320/M-SDE3FGHIRWY/LB1

Departure

Time N/A
Airport Tromsø Airport (ENTC)

Arrival

Time 2026-04-30 18:27
Airport Svalbard Airport, Longyear (ENSB)
Time Latitude Longitude Altitude Speed Heading
2026-04-30 17:39 73.65075 16.32422 34803 ft 455 kts 345°
2026-04-30 17:41 73.89639 16.21031 34785 ft 435 kts 345°
2026-04-30 17:42 73.95603 16.18268 34786 ft 432 kts 345°
2026-04-30 17:42 74.04796 16.14042 34785 ft 455 kts 346°
2026-04-30 17:43 74.11075 16.11099 34781 ft 459 kts 346°
2026-04-30 17:44 74.30113 16.01965 34778 ft 460 kts 346°
2026-04-30 17:47 74.58638 15.87842 34797 ft 461 kts 346°
2026-04-30 17:48 74.80860 15.76399 34771 ft 462 kts 346°
2026-04-30 17:50 75.06367 15.62918 34748 ft 465 kts 347°
2026-04-30 17:52 75.25579 15.52491 34746 ft 466 kts 347°
2026-04-30 17:54 75.54492 15.36212 34758 ft 468 kts 347°
2026-04-30 17:56 75.80220 15.21211 34775 ft 468 kts 347°
2026-04-30 17:58 75.99578 15.09542 34744 ft 469 kts 347°
2026-04-30 18:00 76.25403 14.93516 34737 ft 471 kts 347°
2026-04-30 18:01 76.41552 14.83052 34738 ft 471 kts 347°
2026-04-30 18:02 76.50172 14.77365 34214 ft 472 kts 348°
2026-04-30 18:02 76.59839 14.70847 32393 ft 467 kts 348°
2026-04-30 18:03 76.69324 14.64443 30792 ft 458 kts 347°
2026-04-30 18:04 76.78676 14.57954 29121 ft 448 kts 347°
2026-04-30 18:05 76.90733 14.49529 27102 ft 430 kts 348°
2026-04-30 18:06 77.02311 14.41228 25276 ft 417 kts 348°
2026-04-30 18:07 77.13654 14.32998 23512 ft 410 kts 348°
2026-04-30 18:08 77.22001 14.26815 22139 ft 403 kts 348°
2026-04-30 18:09 77.32914 14.18648 20312 ft 392 kts 348°
2026-04-30 18:10 77.43513 14.10562 18478 ft 383 kts 348°
2026-04-30 18:11 77.53900 14.02561 16622 ft 372 kts 348°
2026-04-30 18:11 77.61462 13.96643 15271 ft 363 kts 349°
2026-04-30 18:12 77.68833 13.90820 13965 ft 356 kts 349°
2026-04-30 18:13 77.73684 13.86933 13066 ft 351 kts 348°
2026-04-30 18:13 77.80002 13.81788 11937 ft 342 kts 348°
2026-04-30 18:14 77.85395 13.77395 10980 ft 336 kts 348°
2026-04-30 18:15 77.92236 13.71740 9806 ft 328 kts 348°
2026-04-30 18:15 77.98680 13.66361 9183 ft 305 kts 348°
2026-04-30 18:16 78.02821 13.63314 8509 ft 302 kts 359°
2026-04-30 18:16 78.06665 13.70155 7796 ft 297 kts 43°
2026-04-30 18:17 78.07968 13.77754 7410 ft 293 kts 64°
2026-04-30 18:17 78.08881 13.86516 7084 ft 290 kts 67°
2026-04-30 18:17 78.10674 14.04010 6341 ft 290 kts 63°
2026-04-30 18:18 78.11881 14.11882 6018 ft 290 kts 51°
2026-04-30 18:18 78.13216 14.18977 5976 ft 278 kts 44°
2026-04-30 18:18 78.14810 14.23494 5985 ft 264 kts 16°
2026-04-30 18:18 78.16556 14.25535 5893 ft 253 kts 10°
2026-04-30 18:19 78.18258 14.27112 5725 ft 245 kts
2026-04-30 18:19 78.19915 14.26515 5439 ft 238 kts 340°
2026-04-30 18:19 78.21474 14.23866 5092 ft 236 kts 335°
2026-04-30 18:19 78.22969 14.20643 4770 ft 232 kts 321°
2026-04-30 18:20 78.24207 14.15630 4282 ft 237 kts 320°
2026-04-30 18:20 78.25803 14.13068 3768 ft 249 kts
2026-04-30 18:20 78.27335 14.16065 3713 ft 233 kts 46°
2026-04-30 18:20 78.28080 14.22539 3663 ft 210 kts 81°
2026-04-30 18:21 78.28418 14.29366 3606 ft 207 kts 82°
2026-04-30 18:21 78.28719 14.36278 3557 ft 207 kts 83°
2026-04-30 18:21 78.29001 14.43219 3509 ft 206 kts 84°
2026-04-30 18:21 78.29279 14.50132 3462 ft 206 kts 84°
2026-04-30 18:22 78.29413 14.56951 3447 ft 190 kts 101°
2026-04-30 18:22 78.28829 14.68720 3184 ft 166 kts 111°
2026-04-30 18:22 78.28539 14.74113 3005 ft 160 kts 111°
2026-04-30 18:23 78.28265 14.79253 2801 ft 155 kts 111°
2026-04-30 18:23 78.27995 14.84324 2592 ft 152 kts 111°
2026-04-30 18:23 78.27732 14.89270 2372 ft 148 kts 111°
2026-04-30 18:23 78.27473 14.94097 2160 ft 145 kts 107°
2026-04-30 18:24 78.26971 15.03441 1781 ft 139 kts 107°
2026-04-30 18:24 78.26726 15.07984 1570 ft 137 kts 107°
2026-04-30 18:24 78.26482 15.12495 1364 ft 136 kts 107°
2026-04-30 18:25 78.26242 15.16907 1172 ft 135 kts 107°
2026-04-30 18:25 78.25757 15.25787 796 ft 134 kts 108°
2026-04-30 18:25 78.25517 15.30173 620 ft 132 kts 108°
2026-04-30 18:26 78.25034 15.38846 258 ft 131 kts 107°
2026-04-30 18:26 78.24810 15.43188 118 ft 131 kts 107°
2026-04-30 18:26 78.24585 15.47102 89 ft 92 kts 106°
2026-04-30 18:27 78.24488 15.49419 89 ft 15 kts 23°
2026-04-30 18:27 78.24523 15.49468 88 ft 0 kts 13°
2026-04-30 18:28 78.24525 15.49470 88 ft 0 kts 13°
2026-04-30 18:29 78.24528 15.49474 88 ft 2 kts 13°
2026-04-30 18:30 78.24576 15.49492 92 ft 6 kts 352°
2026-04-30 18:30 78.24643 15.49128 89 ft 2 kts 288°
2026-04-30 18:31 78.24645 15.49094 88 ft 0 kts 288°